Stations météo

réclame
Mon MeteoGroup
Bastia, France (7790): Température de l'air & dewpoint: 15.01.2018 14:00:00 - 21.01.2018 14:00:00 (CET)Bastia, France (7790): Température de l'air 5cm: 15.01.2018 14:00:00 - 21.01.2018 14:00:00 (CET)Bastia, France (7790): Température de l'air -20cm & Température de l'air -100cm: 15.01.2018 14:00:00 - 21.01.2018 14:00:00 (CET)Bastia, France (7790): Vitesse du vent & gusts: 15.01.2018 14:00:00 - 21.01.2018 14:00:00 (CET)Bastia, France (7790): Direction du vent: 15.01.2018 14:00:00 - 21.01.2018 14:00:00 (CET)Bastia, France (7790): reduced air pressure: 15.01.2018 14:00:00 - 21.01.2018 14:00:00 (CET)Bastia, France (7790): visibility: 15.01.2018 14:00:00 - 21.01.2018 14:00:00 (CET)Bastia, France (7790): Ensoleillement: 15.01.2018 14:00:00 - 21.01.2018 14:00:00 (CET)Bastia, France (7790): Quantités de précipitations: 15.01.2018 14:00:00 - 21.01.2018 14:00:00 (CET)
Date & Time tt [°C] td [°C] tt 5cm [°C] tt -20cm [°C] tt -100cm [°C] ff [km/h] ff [knt] fx [km/h] fx [knt] dd ppp [hPa] vv [km] sd [min] rr [mm]
21.01.2018 14:00:00 - - - - - - - - - - - - - -
21.01.2018 13:00:00 19,3 8,6 23,6 16,0 12,2 4 2 26 14 E 1006,9 50 60 0,0
21.01.2018 12:00:00 18,4 9,7 23,1 16,5 12,2 12 7 19 10 S 1006,7 55 60 0,0
21.01.2018 11:00:00 18,0 10,1 20,5 15,1 12,2 7 4 20 11 SSE 1006,2 55 60 0,0
21.01.2018 10:00:00 16,5 10,1 17,7 14,5 12,2 10 5 37 20 SSW 1004,9 60 60 0,0
21.01.2018 09:00:00 16,4 5,9 14,8 15,1 12,2 6 3 56 31 NW 1003,9 60 60 0,0
21.01.2018 08:00:00 15,7 5,3 13,7 14,8 12,2 37 20 55 30 NW 1002,5 60 1 0,0
21.01.2018 07:00:00 16,6 6,1 8,3 14,9 12,2 27 14 41 22 WNW 1002,5 20 0 0,0
21.01.2018 06:00:00 13,0 6,3 6,2 15,0 12,2 11 6 21 11 N 1001,9 60 0 0,0
21.01.2018 05:00:00 9,1 6,0 3,1 15,1 12,2 10 5 19 10 W 1001,9 60 0 0,0
21.01.2018 04:00:00 7,8 4,7 4,8 15,1 12,2 8 4 18 10 W 1002,9 20 0 0,0
21.01.2018 03:00:00 9,2 5,4 2,5 15,1 12,2 2 1 27 14 W 1003,4 60 0 0,0
21.01.2018 02:00:00 6,4 3,9 2,8 15,0 12,2 5 3 17 9 W 1004,6 60 0 0,0
21.01.2018 01:00:00 6,9 4,2 2,7 14,9 12,2 6 4 13 7 W 1006,1 60 0 0,0
21.01.2018 00:00:00 7,1 4,6 2,0 14,5 12,2 3 2 9 5 WNW 1007,3 59 0 0,0
20.01.2018 23:00:00 8,3 4,3 4,1 14,5 12,2 6 3 18 10 WSW 1008,2 60 0 0,0
20.01.2018 22:00:00 10,0 4,8 8,1 14,5 12,2 11 6 21 11 SW 1009,3 60 0 0,0
20.01.2018 21:00:00 10,4 4,5 8,4 14,4 12,3 6 3 14 8 SSW 1010,2 60 0 0,0
20.01.2018 20:00:00 12,0 4,2 9,0 14,1 12,2 10 5 25 14 SW 1010,6 60 0 0,0
20.01.2018 19:00:00 10,7 6,3 9,0 14,0 12,3 5 3 9 5 S 1011,7 18 0 0,0
20.01.2018 18:00:00 11,9 6,2 8,8 14,2 12,2 4 2 6 3 NW 1012,0 19 0 0,0
20.01.2018 17:00:00 12,4 4,6 9,9 13,9 12,2 0 0 7 4 N 1011,5 60 0 0,0
20.01.2018 16:00:00 13,0 5,6 13,4 13,9 12,3 4 2 18 10 SE 1012,0 60 14 0,0
20.01.2018 15:00:00 14,5 5,3 19,6 14,4 12,3 8 4 19 10 SSE 1012,1 59 60 0,0
20.01.2018 14:00:00 14,7 4,7 19,6 15,2 12,3 7 4 18 10 SE 1012,4 59 60 0,0
20.01.2018 13:00:00 14,6 4,8 19,2 14,7 12,3 8 4 22 12 ENE 1013,1 52 60 0,0
20.01.2018 12:00:00 14,1 4,1 17,7 14,4 12,3 15 8 23 12 NNE 1014,2 51 60 0,0
20.01.2018 11:00:00 13,5 4,1 14,2 14,4 12,3 9 5 21 11 N 1014,6 41 37 0,0
20.01.2018 10:00:00 12,5 2,6 12,4 14,6 12,3 9 5 36 20 NW 1014,6 60 31 0,0
20.01.2018 09:00:00 11,2 2,5 4,7 14,3 12,3 10 6 22 12 WNW 1014,4 50 60 0,0
20.01.2018 08:00:00 8,2 0,9 3,5 14,6 12,3 5 3 21 11 N 1014,1 60 0 0,0
20.01.2018 07:00:00 10,5 1,8 2,3 14,7 12,3 13 7 23 13 SSE 1012,9 60 0 0,0
20.01.2018 06:00:00 8,1 0,8 2,6 14,7 12,3 3 2 19 10 WNW 1012,6 60 0 0,0
20.01.2018 05:00:00 10,0 1,1 5,2 14,6 12,3 7 4 37 20 S 1012,1 60 0 0,0
20.01.2018 04:00:00 11,1 1,3 6,6 14,7 12,3 7 4 18 10 S 1012,3 60 0 0,0
20.01.2018 03:00:00 13,0 -0,3 10,2 14,5 12,3 9 5 58 31 WNW 1011,9 60 0 0,0
20.01.2018 02:00:00 13,6 -0,8 11,7 15,0 12,3 23 12 95 52 WNW 1011,6 60 0 0,0
20.01.2018 01:00:00 15,3 -3,1 11,5 14,2 12,3 44 24 76 41 W 1011,4 60 0 0,0
20.01.2018 00:00:00 14,2 0,1 11,0 14,1 12,3 18 10 52 28 N 1012,2 60 0 0,0
19.01.2018 23:00:00 13,5 0,8 10,6 14,2 12,3 16 9 56 30 NNW 1012,3 60 0 0,0
19.01.2018 22:00:00 14,1 0,7 11,4 14,1 12,3 32 17 65 35 NNW 1011,6 60 0 0,0
19.01.2018 21:00:00 14,1 0,0 10,6 14,3 12,3 23 12 50 27 N 1011,4 60 0 0,0
19.01.2018 20:00:00 13,6 0,9 7,3 14,3 12,3 18 10 31 17 NNW 1011,9 60 0 0,0
19.01.2018 19:00:00 12,5 4,2 6,8 14,1 12,3 21 12 33 18 NE 1011,4 60 0 0,0
19.01.2018 18:00:00 10,1 8,0 4,9 13,8 12,3 5 3 13 7 NW 1011,2 20 0 0,0
19.01.2018 17:00:00 12,5 9,7 9,6 13,7 12,3 4 2 8 4 W 1010,2 38 2 0,0
19.01.2018 16:00:00 13,5 10,1 14,8 13,6 12,3 6 4 14 8 ESE 1010,1 43 58 0,0
19.01.2018 15:00:00 14,7 8,9 18,3 13,8 12,3 5 3 19 10 S 1009,7 47 60 0,0
19.01.2018 14:00:00 15,5 8,5 20,0 14,2 12,3 9 5 13 7 SE 1009,5 59 60 0,0
19.01.2018 13:00:00 15,4 8,6 19,8 14,1 12,4 9 5 16 9 SSE 1010,0 52 60 0,0
19.01.2018 12:00:00 15,3 7,3 13,8 14,1 12,3 6 3 12 6 S 1010,5 54 60 0,0
19.01.2018 11:00:00 11,3 6,8 10,8 14,3 12,4 8 4 16 9 SW 1011,1 10 25 0,0
19.01.2018 10:00:00 9,9 6,4 7,8 14,6 12,3 8 4 13 7 SW 1011,2 10 29 0,0
19.01.2018 09:00:00 7,2 5,2 3,2 14,6 12,3 9 5 16 8 SW 1011,6 52 3 0,0
19.01.2018 08:00:00 5,6 4,2 1,9 14,6 12,4 8 4 14 8 W 1011,5 10 0 0,0
19.01.2018 07:00:00 4,9 2,9 2,4 14,7 12,4 11 6 16 8 SW 1011,8 10 0 0,0
19.01.2018 06:00:00 4,8 3,0 2,5 15,1 12,3 9 5 13 7 SW 1011,8 10 0 0,0
19.01.2018 05:00:00 5,6 3,3 2,1 15,1 12,4 9 5 15 8 WSW 1012,3 10 0 0,0
19.01.2018 04:00:00 5,3 3,3 1,7 15,0 12,4 9 5 14 7 WSW 1013,0 10 0 0,0
19.01.2018 03:00:00 4,6 2,8 0,6 15,1 12,4 8 4 14 7 W 1013,5 10 0 0,0
19.01.2018 02:00:00 4,9 2,8 -0,3 15,3 12,4 8 4 12 6 W 1013,4 10 0 0,0
19.01.2018 01:00:00 4,3 1,8 0,5 15,0 12,3 0 0 11 6 N 1014,0 10 0 0,0
19.01.2018 00:00:00 5,0 2,7 1,4 14,9 12,4 8 4 13 7 WSW 1014,3 10 0 0,0
18.01.2018 23:00:00 5,0 2,5 -0,3 14,9 12,4 8 4 13 7 WSW 1014,9 10 0 0,0
18.01.2018 22:00:00 4,9 2,6 0,7 14,9 12,4 5 3 10 5 S 1015,5 10 0 0,0
18.01.2018 21:00:00 5,6 2,8 1,6 14,8 12,4 5 3 16 8 SW 1015,8 10 0 0,0
18.01.2018 20:00:00 5,9 2,5 2,7 14,8 12,4 8 4 13 7 WSW 1016,3 10 0 0,0
18.01.2018 19:00:00 7,6 3,4 1,8 14,7 12,4 5 3 10 5 W 1016,5 10 0 0,0
18.01.2018 18:00:00 8,2 3,2 2,6 14,6 12,4 5 3 8 5 - 1016,6 10 0 0,0
18.01.2018 17:00:00 11,4 3,4 7,9 14,1 12,4 3 2 15 8 SSE 1016,4 60 50 0,0
18.01.2018 16:00:00 12,9 3,3 15,4 14,4 12,4 11 6 18 10 S 1016,6 53 60 0,0
18.01.2018 15:00:00 13,4 3,2 17,5 14,4 12,4 11 6 22 12 SSE 1016,9 10 60 0,0
18.01.2018 14:00:00 14,1 2,6 20,2 14,3 12,4 9 5 20 11 SSE 1017,0 60 60 0,0
18.01.2018 13:00:00 14,4 1,6 20,4 14,1 12,4 7 4 13 7 SSE 1017,9 51 60 0,0
18.01.2018 12:00:00 13,8 1,7 19,7 14,0 12,4 9 5 18 10 NE 1018,9 60 60 0,0
18.01.2018 11:00:00 13,4 1,7 17,6 13,8 12,4 2 1 8 5 - 1019,7 10 60 0,0
18.01.2018 10:00:00 10,7 1,2 11,3 14,0 12,4 4 2 8 4 WSW 1019,8 46 60 0,0
18.01.2018 09:00:00 7,8 -0,4 6,6 13,8 12,4 5 3 23 12 WSW 1019,5 10 60 0,0
18.01.2018 08:00:00 8,8 -2,2 6,5 14,0 12,4 15 8 29 15 W 1018,7 10 3 0,0
18.01.2018 07:00:00 8,3 -2,1 6,8 14,1 12,4 18 10 31 17 W 1018,1 10 0 0,0
18.01.2018 06:00:00 8,8 -1,9 6,7 14,1 12,4 22 12 35 19 WNW 1018,3 10 0 0,0
18.01.2018 05:00:00 8,6 -1,5 6,8 14,2 12,4 22 12 36 19 W 1018,1 60 0 0,0
18.01.2018 04:00:00 9,0 -1,4 6,0 14,2 12,4 21 11 36 20 W 1018,7 10 0 0,0
18.01.2018 03:00:00 9,1 -1,3 5,8 14,2 12,4 10 5 35 19 WNW 1019,3 60 0 0,0
18.01.2018 02:00:00 10,4 -1,7 7,1 14,2 12,4 24 13 38 21 WNW 1018,3 10 0 0,0
18.01.2018 01:00:00 9,7 -1,1 6,8 14,2 12,4 15 8 25 13 W 1018,6 10 0 0,0
18.01.2018 00:00:00 10,9 -1,2 8,3 14,3 12,4 16 9 31 17 NNW 1018,5 10 0 0,0
17.01.2018 23:00:00 11,4 -1,1 9,7 14,3 12,4 22 12 35 19 WNW 1017,8 60 0 0,0
17.01.2018 22:00:00 11,9 -1,3 9,8 14,3 12,4 21 11 35 19 NW 1017,2 10 0 0,0
17.01.2018 21:00:00 12,0 -1,9 10,2 14,3 12,4 17 9 37 20 NW 1015,8 60 0 0,0
17.01.2018 20:00:00 12,0 -1,5 10,5 14,3 12,4 22 12 54 29 WNW 1014,9 10 0 0,0
17.01.2018 19:00:00 12,4 -0,8 11,1 14,3 12,4 35 19 63 34 WNW 1013,4 10 0 0,0
17.01.2018 18:00:00 12,6 -1,4 11,5 14,3 12,4 42 23 68 37 WNW 1012,5 10 0 0,0
17.01.2018 17:00:00 12,7 -1,6 11,5 14,2 12,4 35 19 77 41 WNW 1011,2 10 23 0,0
17.01.2018 16:00:00 13,5 -2,1 14,1 14,4 12,4 42 23 82 44 WNW 1009,8 10 60 0,0
17.01.2018 15:00:00 14,1 -2,0 15,3 14,3 12,4 50 27 93 50 WNW 1008,3 10 60 0,0
17.01.2018 14:00:00 14,4 -2,5 16,3 14,4 12,4 48 26 97 53 WNW 1007,5 10 60 0,0
17.01.2018 13:00:00 14,9 -2,1 16,9 14,1 12,4 52 28 104 56 NW 1007,4 10 60 0,0
17.01.2018 12:00:00 15,2 -1,4 17,1 14,5 12,4 57 31 108 58 WNW 1006,8 12 60 0,0
17.01.2018 11:00:00 16,0 -3,5 17,8 14,3 12,4 48 26 86 47 NW 1005,7 12 60 0,0
17.01.2018 10:00:00 16,4 -0,8 17,0 14,3 12,4 61 33 115 62 WNW 1004,0 10 60 0,0
17.01.2018 09:00:00 16,8 -1,4 15,5 14,2 12,4 61 33 134 72 WNW 1003,0 9 60 0,0
17.01.2018 08:00:00 16,8 0,0 15,5 14,4 12,4 67 36 119 64 NW 1002,1 10 2 0,0
17.01.2018 07:00:00 17,9 1,8 16,2 14,3 12,4 70 38 133 72 WNW 1002,0 10 0 0,0
17.01.2018 06:00:00 18,1 3,9 16,0 14,4 12,4 52 28 105 57 WNW 1003,1 10 0 0,0
17.01.2018 05:00:00 17,9 4,5 16,0 14,0 12,4 44 24 87 47 NW 1003,4 10 0 0,0
17.01.2018 04:00:00 18,3 3,7 15,9 14,3 12,4 44 24 78 42 WNW 1003,7 10 0 0,0
17.01.2018 03:00:00 17,9 4,5 16,0 14,3 12,5 28 15 67 36 NW 1004,7 10 0 0,0
17.01.2018 02:00:00 18,0 4,9 16,2 14,5 12,4 44 24 84 45 WNW 1004,9 10 0 0,0
17.01.2018 01:00:00 18,3 3,7 14,9 14,5 12,4 37 20 78 42 WNW 1005,9 10 0 0,0
17.01.2018 00:00:00 17,6 5,2 7,5 14,3 12,4 29 16 66 36 NW 1007,0 10 0 0,0
16.01.2018 23:00:00 10,6 7,7 6,8 14,5 12,5 5 3 21 12 - 1007,5 10 0 0,0
16.01.2018 22:00:00 10,6 6,7 6,1 14,7 12,4 2 1 17 9 - 1007,9 10 0 0,0
16.01.2018 21:00:00 11,0 6,3 4,9 14,4 12,5 11 6 26 14 - 1008,2 10 0 0,0
16.01.2018 20:00:00 9,2 5,7 5,2 14,4 12,4 8 4 13 7 SW 1008,6 10 0 0,0
16.01.2018 19:00:00 10,1 6,1 5,8 14,4 12,5 8 4 13 7 W 1009,0 10 0 0,0
16.01.2018 18:00:00 11,1 6,8 6,0 14,1 12,5 6 4 10 6 ESE 1009,2 60 0 0,0
16.01.2018 17:00:00 15,3 7,8 11,4 14,2 12,5 3 2 12 6 SW 1009,2 60 49 0,0
16.01.2018 16:00:00 17,1 9,0 20,5 14,1 12,5 3 1 14 7 S 1009,2 60 60 0,0
16.01.2018 15:00:00 17,4 8,8 21,3 13,8 12,5 11 6 22 12 SSE 1009,3 10 60 0,0
16.01.2018 14:00:00 16,9 9,6 22,5 14,9 12,5 11 6 19 11 SSE 1010,0 60 60 0,0
16.01.2018 13:00:00 16,4 8,1 22,2 14,5 12,5 11 6 20 11 S 1011,3 10 60 0,0
16.01.2018 12:00:00 15,9 8,9 20,9 14,3 12,5 11 6 19 11 WSW 1012,3 10 60 0,0
16.01.2018 11:00:00 14,6 9,6 - - - 8 4 18 10 ENE 1013,3 10 - 0,0
16.01.2018 10:00:00 12,7 8,4 13,2 14,3 12,5 13 7 21 11 S 1013,8 10 58 0,0
16.01.2018 09:00:00 9,8 5,8 5,5 14,3 12,5 3 2 14 8 SW 1013,9 46 56 0,0
16.01.2018 08:00:00 6,4 4,2 3,6 14,6 12,5 6 4 13 7 ENE 1014,4 26 1 0,0
16.01.2018 07:00:00 6,0 3,8 4,5 14,6 12,5 4 2 13 7 W 1015,2 20 0 0,0
16.01.2018 06:00:00 5,3 3,5 2,9 14,6 12,5 8 4 13 7 W 1015,4 10 0 0,0
16.01.2018 05:00:00 5,7 3,4 2,8 14,6 12,5 5 3 12 7 W 1016,0 20 0 0,0
16.01.2018 04:00:00 5,7 3,0 3,4 14,6 12,5 6 4 12 7 W 1017,0 20 0 0,0
16.01.2018 03:00:00 6,9 3,9 5,6 14,6 12,5 10 5 16 9 WSW 1017,7 20 0 0,0
16.01.2018 02:00:00 7,2 3,8 6,0 14,6 12,5 10 5 21 12 WSW 1018,3 20 0 0,0
16.01.2018 01:00:00 7,3 4,1 4,1 14,8 12,5 13 7 19 10 WSW 1019,0 10 0 0,0
16.01.2018 00:00:00 6,2 4,0 1,7 14,7 12,5 15 8 20 11 W 1019,6 10 0 0,0
15.01.2018 23:00:00 5,9 4,7 0,8 14,8 12,6 7 4 13 7 WNW 1020,3 27 0 0,0
15.01.2018 22:00:00 5,8 4,6 0,1 14,8 12,5 9 5 12 7 W 1020,0 21 0 0,0
15.01.2018 21:00:00 6,4 5,3 1,0 14,9 12,5 4 2 10 5 - 1020,2 10 0 0,0
15.01.2018 20:00:00 6,8 5,9 2,5 14,7 12,5 6 3 11 6 W 1020,3 10 0 0,0
15.01.2018 19:00:00 7,6 6,7 3,6 14,7 12,5 5 3 9 5 W 1020,2 7 0 0,0
15.01.2018 18:00:00 9,6 7,5 6,0 14,8 12,6 5 3 8 4 SW 1020,9 10 0 0,0
15.01.2018 17:00:00 11,7 8,4 10,5 14,6 12,5 4 2 10 5 - 1021,1 10 14 0,0
15.01.2018 16:00:00 12,0 8,8 11,8 14,6 12,6 8 4 14 8 S 1020,8 10 5 0,0
15.01.2018 15:00:00 12,2 8,5 12,7 14,5 12,6 9 5 17 9 S 1020,9 10 19 0,0
15.01.2018 14:00:00 12,6 8,7 15,2 14,4 12,5 9 5 16 9 SSE 1021,3 10 50 0,0

tt = Température de l'air
td = dewpoint
tt 5cm = Température de l'air 5cm
tt -20cm = Température de l'air -20cm
tt -100cm = Température de l'air -100cm
ff = Vitesse du vent
fx = gusts
dd = Direction du vent
ppp = reduced air pressure
vv = visibility
sd = Ensoleillement
rr = Quantités de précipitations

stations d'obs. à proximité